Weather History for KGSH - January, 2014

Change the Weather History Date:

Thursday, January 16, 2014

  Actual Average Record
Temperature  
Mean Temperature 24 °F -  
Max Temperature 30 °F 30 °F 57 °F (1949)
Min Temperature 19 °F 12 °F -20 °F (2009)
Degree Days  
Heating Degree Days 40    
Moisture  
Dew Point 21 °F    
Average Humidity 81    
Maximum Humidity 86    
Minimum Humidity 66    
Precipitation  
Precipitation 0.01 in - - ()
Sea Level Pressure  
Sea Level Pressure 29.67 in    
Wind  
Wind Speed 16 mph (South)    
Max Wind Speed 21 mph    
Max Gust Speed 28 mph    
Visibility 4 miles    
Events Fog , Snow    
Averages and records for this station are not official NWS values.
T = Trace of Precipitation, MM = Missing Value Source: NWS Daily Summary

Daily Weather History Graph

Daily Weather History Graph

Search for Another Location

Airport or City:

Trip Planner

Search our weather history database for the weather conditions in past years. The results will help you decide how hot, cold, wet, or windy it might be!

Date:

Astronomy

Jan. 16, 2014 Rise Set
Actual Time 8:06 AM EST 5:39 PM EST
Civil Twilight 7:36 AM EST 6:09 PM EST
Nautical Twilight 7:02 AM EST 6:44 PM EST
Astronomical Twilight 6:29 AM EST 7:17 PM EST
Moon 6:31 PM EST (1/16) 7:59 AM EST (1/16)
Length of Visible Light 10h 33m
Length of Day
9h 32m
Full, 100% of the Moon is Illuminated
Jan 16
Full
Jan 24
Last Quarter
Jan 30
New
Feb 6
First Quarter
Feb 14
Full

Hourly Weather History & Observations

Time (EST) Temp. Windchill Dew Point Humidity Pressure Visibility Wind Dir Wind Speed Gust Speed Precip Events Conditions
12:53 AM 19.0 °F 5.6 °F 10.9 °F 71% 29.96 in 10.0 mi SSW 13.8 mph - N/A   Overcast
1:40 AM 19.4 °F 6.0 °F 10.4 °F 68% 29.91 in 10.0 mi SSW 13.8 mph - N/A   Scattered Clouds
1:53 AM 19.0 °F 5.0 °F 12.0 °F 74% 29.96 in 10.0 mi SSW 15.0 mph - N/A   Partly Cloudy
2:53 AM 19.9 °F 5.7 °F 12.0 °F 71% 29.92 in 10.0 mi South 16.1 mph - N/A   Overcast
3:53 AM 19.9 °F 5.2 °F 12.9 °F 74% 29.87 in 10.0 mi South 17.3 mph 20.7 mph N/A   Overcast
4:53 AM 19.9 °F 6.2 °F 12.9 °F 74% 29.84 in 10.0 mi South 15.0 mph 23.0 mph N/A   Overcast
5:53 AM 21.0 °F 8.1 °F 12.9 °F 71% 29.81 in 10.0 mi South 13.8 mph - N/A   Overcast
6:50 AM 21.2 °F 7.3 °F 15.8 °F 80% 29.74 in 1.8 mi South 16.1 mph 23.0 mph 0.00 in Snow Light Snow
6:53 AM 21.9 °F 7.8 °F 15.1 °F 75% 29.78 in 2.0 mi South 17.3 mph 25.3 mph 0.00 in Snow Light Snow
7:03 AM 21.2 °F 8.3 °F 15.8 °F 80% 29.73 in 4.0 mi South 13.8 mph 26.5 mph 0.00 in Snow Light Snow
7:53 AM 21.9 °F 8.7 °F 16.0 °F 78% 29.75 in 3.0 mi South 15.0 mph - 0.00 in Snow Light Snow
8:21 AM 23.0 °F 10.1 °F 17.6 °F 80% 29.71 in 2.0 mi South 15.0 mph 21.9 mph 0.00 in Snow Light Snow
8:30 AM 23.0 °F 9.6 °F 17.6 °F 80% 29.70 in 1.0 mi South 16.1 mph - 0.00 in Snow Light Snow
8:38 AM 21.2 °F 7.3 °F 17.6 °F 86% 29.69 in 0.8 mi South 16.1 mph 23.0 mph 0.00 in Snow Light Snow
8:49 AM 21.2 °F 7.3 °F 17.6 °F 86% 29.69 in 1.5 mi South 16.1 mph 24.2 mph 0.00 in Snow Light Snow
8:53 AM 23.0 °F 10.6 °F 18.0 °F 81% 29.73 in 2.0 mi South 13.8 mph 23.0 mph 0.00 in Snow Light Snow
9:02 AM 23.0 °F 8.3 °F 17.6 °F 80% 29.69 in 1.2 mi South 19.6 mph 25.3 mph 0.00 in Snow Light Snow
9:09 AM 23.0 °F 9.2 °F 17.6 °F 80% 29.70 in 0.5 mi South 17.3 mph 25.3 mph 0.00 in Snow Snow
9:32 AM 23.0 °F 8.3 °F 19.4 °F 86% 29.69 in 0.5 mi South 19.6 mph 25.3 mph 0.00 in Fog , Snow Snow
9:49 AM 23.0 °F 9.6 °F 19.4 °F 86% 29.69 in 0.8 mi South 16.1 mph - 0.00 in Snow Light Snow
9:53 AM 23.0 °F 10.1 °F 19.0 °F 85% 29.73 in 1.0 mi South 15.0 mph - 0.00 in Snow Light Snow
10:10 AM 24.8 °F 11.5 °F 19.4 °F 80% 29.69 in 0.5 mi South 17.3 mph - 0.00 in Snow Snow
10:41 AM 24.8 °F 11.5 °F 19.4 °F 80% 29.69 in 0.8 mi South 17.3 mph 23.0 mph 0.00 in Snow Light Snow
10:48 AM 24.8 °F 12.4 °F 19.4 °F 80% 29.69 in 1.0 mi South 15.0 mph 24.2 mph 0.00 in Snow Light Snow
10:53 AM 25.0 °F 12.6 °F 19.9 °F 81% 29.72 in 0.8 mi South 15.0 mph - 0.00 in Snow Light Snow
11:17 AM 24.8 °F 13.4 °F 21.2 °F 86% 29.68 in 1.8 mi South 12.7 mph - 0.00 in Snow Light Snow
11:26 AM 24.8 °F 11.5 °F 19.4 °F 80% 29.68 in 2.5 mi South 17.3 mph - 0.00 in Snow Light Snow
11:41 AM 24.8 °F 12.4 °F 21.2 °F 86% 29.67 in 0.8 mi South 15.0 mph - 0.00 in Snow Light Snow
11:53 AM 25.0 °F 11.7 °F 21.0 °F 85% 29.70 in 0.5 mi South 17.3 mph 23.0 mph 0.01 in Fog , Snow Light Snow
12:05 PM 24.8 °F 11.5 °F 21.2 °F 86% 29.65 in 0.2 mi South 17.3 mph - 0.00 in Fog , Snow Snow
12:50 PM 26.6 °F 14.7 °F 21.2 °F 80% 29.62 in 0.8 mi South 15.0 mph - 0.00 in Snow Light Snow
12:53 PM 26.1 °F 13.6 °F 21.9 °F 84% 29.66 in 0.8 mi South 16.1 mph - 0.00 in Snow Light Snow
1:01 PM 26.6 °F 14.3 °F 21.2 °F 80% 29.62 in 1.8 mi South 16.1 mph - 0.00 in Snow Light Snow
1:06 PM 26.6 °F 13.4 °F 21.2 °F 80% 29.61 in 3.0 mi South 18.4 mph - 0.00 in Snow Light Snow
1:18 PM 26.6 °F 13.8 °F 21.2 °F 80% 29.61 in 1.8 mi South 17.3 mph 26.5 mph 0.00 in Snow Light Snow
1:36 PM 26.6 °F 13.4 °F 21.2 °F 80% 29.60 in 3.0 mi SSW 18.4 mph 27.6 mph 0.00 in Snow Light Snow
1:53 PM 27.0 °F 13.9 °F 21.9 °F 81% 29.62 in 9.0 mi SSW 18.4 mph 26.5 mph 0.00 in   Overcast
2:28 PM 28.4 °F 15.1 °F 21.2 °F 74% 29.57 in 5.0 mi South 20.7 mph - N/A   Haze
2:53 PM 28.9 °F 16.5 °F 23.0 °F 78% 29.60 in 5.0 mi South 18.4 mph 25.3 mph 0.00 in Snow Light Snow
3:53 PM 28.9 °F 16.5 °F 24.1 °F 82% 29.61 in 7.0 mi SSW 18.4 mph - 0.00 in   Overcast
4:08 PM 28.4 °F 17.0 °F 24.8 °F 86% 29.57 in 1.8 mi South 15.0 mph - 0.00 in Snow Light Snow
4:27 PM 28.4 °F 17.0 °F 24.8 °F 86% 29.58 in 3.0 mi South 15.0 mph - 0.00 in Snow Light Snow
4:39 PM 28.4 °F 16.6 °F 24.8 °F 86% 29.58 in 1.8 mi South 16.1 mph - 0.00 in Snow Light Snow
4:46 PM 28.4 °F 16.2 °F 24.8 °F 86% 29.58 in 0.5 mi South 17.3 mph - 0.00 in Fog , Snow Snow
4:53 PM 28.9 °F 17.3 °F 25.0 °F 85% 29.61 in 0.5 mi South 16.1 mph - 0.00 in Fog , Snow Light Snow
5:02 PM 28.4 °F 17.0 °F 24.8 °F 86% 29.58 in 1.0 mi South 15.0 mph - 0.00 in Snow Light Snow
5:10 PM 28.4 °F 17.0 °F 24.8 °F 86% 29.58 in 2.0 mi South 15.0 mph - 0.00 in Snow Light Snow
5:19 PM 28.4 °F 17.5 °F 24.8 °F 86% 29.58 in 5.0 mi South 13.8 mph - 0.00 in   Overcast
5:34 PM 28.4 °F 16.2 °F 24.8 °F 86% 29.59 in 1.8 mi South 17.3 mph - 0.00 in Snow Light Snow
5:53 PM 28.9 °F 17.3 °F 25.0 °F 85% 29.62 in 1.8 mi South 16.1 mph - 0.00 in Snow Light Snow
5:57 PM 28.4 °F 16.2 °F 24.8 °F 86% 29.59 in 3.0 mi South 17.3 mph - 0.00 in Snow Light Snow
6:22 PM 28.4 °F 16.6 °F 24.8 °F 86% 29.59 in 5.0 mi South 16.1 mph - 0.00 in Snow Light Snow
6:48 PM 28.4 °F 16.6 °F 24.8 °F 86% 29.59 in 2.0 mi South 16.1 mph - 0.00 in Snow Light Snow
6:53 PM 28.9 °F 16.5 °F 25.0 °F 85% 29.62 in 2.5 mi South 18.4 mph - 0.00 in Snow Light Snow
7:10 PM 28.4 °F 16.6 °F 24.8 °F 86% 29.59 in 3.0 mi South 16.1 mph - 0.00 in Snow Light Snow
7:16 PM 28.4 °F 16.2 °F 24.8 °F 86% 29.59 in 2.5 mi South 17.3 mph - 0.00 in Snow Light Snow
7:23 PM 28.4 °F 15.8 °F 24.8 °F 86% 29.59 in 2.5 mi South 18.4 mph - 0.00 in Snow Light Snow
7:34 PM 30.2 °F 18.5 °F 24.8 °F 80% 29.59 in 4.0 mi South 17.3 mph - 0.00 in Snow Light Snow
7:53 PM 30.0 °F 19.1 °F 25.0 °F 82% 29.62 in 3.0 mi South 15.0 mph - 0.00 in Snow Light Snow
8:11 PM 30.2 °F 19.3 °F 26.6 °F 86% 29.59 in 2.0 mi South 15.0 mph - 0.00 in Snow Light Snow
8:53 PM 30.0 °F 19.5 °F 26.1 °F 85% 29.63 in 2.5 mi SSW 13.8 mph - 0.00 in Snow Light Snow
9:11 PM 30.2 °F 20.2 °F 26.6 °F 86% 29.60 in 4.0 mi SSW 12.7 mph - 0.00 in Snow Light Snow
9:19 PM 30.2 °F 19.8 °F 26.6 °F 86% 29.60 in 6.0 mi SSW 13.8 mph - 0.00 in Snow Light Snow
9:51 PM 30.2 °F 19.3 °F 26.6 °F 86% 29.62 in 9.0 mi WSW 15.0 mph - 0.00 in   Overcast
9:53 PM 30.9 °F 19.8 °F 25.0 °F 79% 29.65 in 9.0 mi WSW 16.1 mph - 0.00 in   Overcast
10:53 PM 28.9 °F 16.9 °F 19.0 °F 67% 29.67 in 10.0 mi WSW 17.3 mph 24.2 mph N/A   Overcast
11:53 PM 27.0 °F 16.1 °F 17.1 °F 66% 29.68 in 10.0 mi WSW 12.7 mph - N/A   Overcast